Weather History for Aberdeen, SD

Change the Weather History Date:

Thursday, January 31, 2013

  Actual Average Record
Temperature  
Mean Temperature -17 °F 13 °F  
Max Temperature -6 °F 24 °F 51 °F (1924)
Min Temperature -29 °F 2 °F -32 °F (1996)
Degree Days  
Heating Degree Days 82 52  
Month to date heating degree days 1589 1638  
Since 1 July heating degree days 5013 5134  
Cooling Degree Days 0 0  
Month to date cooling degree days 0 0  
Year to date cooling degree days 0 0  
Moisture  
Dew Point -21 °F    
Average Humidity 70    
Maximum Humidity 82    
Minimum Humidity 57    
Precipitation  
Precipitation T in 0.01 in 0.60 in (1917)
Month to date precipitation 0.78 0.47  
Year to date precipitation 0.78 0.47  
Snow  
Snow T in - - ()
Month to date snowfall 9.6  
Since 1 July snowfall 23.5  
Snow Depth 6.00 in    
Sea Level Pressure  
Sea Level Pressure 30.29 in    
Wind  
Wind Speed 15 mph (NW)    
Max Wind Speed 29 mph    
Max Gust Speed 35 mph    
Visibility 7 miles    
Events Snow    
T = Trace of Precipitation, MM = Missing Value Source: NWS Daily Summary

Daily Weather History Graph

Daily Weather History Graph

Search for Another Location

Airport:

Trip Planner

Search our weather history database for the weather conditions in past years. The results will help you decide how hot, cold, wet, or windy it might be!

Date:

Astronomy

Jan. 31, 2013 Rise Set
Actual Time 7:55 AM CST 5:39 PM CST
Civil Twilight 7:23 AM CST 6:11 PM CST
Nautical Twilight 6:48 AM CST 6:46 PM CST
Astronomical Twilight 6:13 AM CST 7:21 PM CST
Moon 11:01 PM CST (1/31) 9:39 AM CST (1/31)
Length of Visible Light 10h 47m
Length of Day
9h 44m
Waning Gibbous, 79% of the Moon is Illuminated
Jan 31
Waning Gibbous
Feb 3
Last Quarter
Feb 10
New
Feb 17
First Quarter
Feb 25
Full

Hourly Weather History & Observations

Time (CST) Temp. Windchill Dew Point Humidity Pressure Visibility Wind Dir Wind Speed Gust Speed Precip Events Conditions
12:53 AM -11.0 °F -32.7 °F -18.9 °F 68% 30.10 in 10.0 mi NW 13.8 mph - N/A   Mostly Cloudy
1:53 AM -11.0 °F -30.9 °F -18.9 °F 68% 30.12 in 10.0 mi NW 11.5 mph - N/A   Mostly Cloudy
2:53 AM -9.9 °F -34.8 °F -18.0 °F 68% 30.14 in 8.0 mi NNW 19.6 mph - N/A   Overcast
3:38 AM -9.4 °F -34.1 °F -16.6 °F 71% 30.04 in 2.5 mi NNW 19.6 mph 27.6 mph 0.00 in Snow Light Snow
3:48 AM -9.4 °F -34.1 °F -16.6 °F 71% 30.04 in 3.0 mi NNW 19.6 mph - 0.00 in Snow Light Snow
3:53 AM -9.9 °F -34.2 °F -17.0 °F 71% 30.16 in 3.0 mi NNW 18.4 mph - 0.00 in Snow Light Snow
4:16 AM -9.4 °F -34.1 °F -18.4 °F 65% 30.05 in 2.5 mi NNW 19.6 mph 28.8 mph 0.00 in Snow Light Snow
4:25 AM -9.4 °F -33.5 °F -18.4 °F 65% 30.06 in 3.0 mi NNW 18.4 mph - 0.00 in Snow Light Snow
4:36 AM -11.2 °F -38.7 °F -18.4 °F 70% 30.07 in 2.5 mi NW 24.2 mph 28.8 mph 0.00 in Snow Light Snow
4:53 AM -11.0 °F -36.8 °F -18.9 °F 68% 30.20 in 2.5 mi NNW 20.7 mph - 0.00 in Snow Light Snow
5:02 AM -11.2 °F -37.0 °F -18.4 °F 70% 30.08 in 3.0 mi NNW 20.7 mph - 0.00 in Snow Light Snow
5:19 AM -11.2 °F -35.2 °F -18.4 °F 70% 30.09 in 2.0 mi NNW 17.3 mph - 0.00 in Snow Light Snow
5:53 AM -11.0 °F -37.4 °F -20.0 °F 64% 30.23 in 5.0 mi NNW 21.9 mph 28.8 mph 0.00 in   Haze
6:25 AM -13.0 °F -36.8 °F -20.2 °F 70% 30.13 in 10.0 mi NW 16.1 mph - N/A   Mostly Cloudy
6:53 AM -13.0 °F -38.2 °F -20.9 °F 68% 30.27 in 9.0 mi NNW 18.4 mph 26.5 mph N/A   Overcast
7:53 AM -11.9 °F -33.8 °F -20.0 °F 67% 30.32 in 10.0 mi NW 13.8 mph - N/A   Overcast
8:53 AM -13.0 °F -36.0 °F -22.0 °F 64% 30.36 in 10.0 mi NW 15.0 mph - N/A   Clear
9:53 AM -11.9 °F -36.1 °F -22.0 °F 61% 30.39 in 10.0 mi NW 17.3 mph - N/A   Clear
10:53 AM -11.0 °F -36.2 °F -20.9 °F 62% 30.42 in 7.0 mi NW 19.6 mph - N/A   Clear
11:53 AM -11.0 °F -37.4 °F -20.0 °F 64% 30.43 in 3.0 mi NNW 21.9 mph - N/A   Haze
12:53 PM -9.0 °F -33.0 °F -18.9 °F 62% 30.44 in 8.0 mi NW 18.4 mph 26.5 mph N/A   Clear
1:53 PM -8.0 °F -32.8 °F -18.0 °F 61% 30.43 in 10.0 mi NW 20.7 mph - N/A   Clear
2:53 PM -7.1 °F -31.0 °F -17.0 °F 62% 30.44 in 10.0 mi NW 19.6 mph - N/A   Clear
3:53 PM -6.0 °F -28.4 °F -17.0 °F 59% 30.44 in 10.0 mi NW 17.3 mph - N/A   Clear
4:53 PM -7.1 °F -28.4 °F -18.0 °F 59% 30.44 in 10.0 mi NW 15.0 mph 20.7 mph N/A   Clear
5:53 PM -9.9 °F -26.3 °F -18.9 °F 65% 30.44 in 10.0 mi WNW 8.1 mph - N/A   Clear
6:53 PM -11.0 °F -26.2 °F -20.0 °F 64% 30.45 in 10.0 mi West 6.9 mph - N/A   Clear
7:53 PM -18.9 °F -29.5 °F -25.1 °F 74% 30.47 in 10.0 mi West 3.5 mph - N/A   Clear
8:53 PM -23.1 °F -34.2 °F -27.9 °F 78% 30.46 in 10.0 mi West 3.5 mph - N/A   Clear
9:53 PM -26.0 °F -37.5 °F -29.9 °F 81% 30.46 in 10.0 mi SW 3.5 mph - N/A   Clear
10:53 PM -25.1 °F -39.1 °F -29.9 °F 78% 30.45 in 10.0 mi SW 4.6 mph - N/A   Clear
11:53 PM -27.0 °F - -32.1 °F 77% 30.44 in 10.0 mi Calm Calm - N/A   Clear